User: anonymous   Login
Location: Unspecified
(0.0000°N, 0.0000°E)
Time: 09:28:31
(UTC+00:00)
Language:

Explorer 11/Cluster Stage 4 - Orbit

View from above orbital plane
View from above orbital plane
View from above satellite
View from above satellite

Ground track
Ground track

The orbit data is extracted from the following two-line orbital elements,

1 00107U 61013A   14297.43462084  .00006880  00000-0  93825-3 0  1672
2 00107 028.7904 296.9420 0560254 333.5298 183.1832 14.05552176674769
Epoch (UTC): 24 October 2014 10:25:51
Eccentricity: 0.0560254
inclination: 28.7904°
perigee height: 468 km
apogee height: 1281 km
right ascension of ascending node: 296.9420°
argument of perigee: 333.5298°
revolutions per day: 14.05552176
mean anomaly at epoch: 183.1832°
orbit number at epoch: 67476

The dashed part of the orbit path shows where the satellite is in the earth's shadow,  

DLR